Menu Close Menu
Station Historical Data
Daily Summary for August 26, 2017 Units:  Metric    English   Both
« Previous Day
Next Day »
Daily Weekly Monthly Yearly Custom
  High: Low: Average:
Temperature: 29.8 °C 20.4 °C 24.8 °C
Dew Point: 21.6 °C 18.2 °C 20.1 °C
Humidity: 88% 60% 76%
Wind Speed: 1.6km/h 0km/h 0km/h
Wind Gust: 4.8km/h - -
Wind- - WSW
Pressure: 1020.5 hPa 1017.5 hPa -
Precipitation: 0 mm    
Historical Graphs
 
 
Tabular Data for August 26, 2017
Time Temperature Dew Point Pressure Wind Wind Speed Wind Gust Humidity Rainfall Rate (Hourly) solar Conditions
00:00 22.8 °C 19.7 °C 1019.2 hPa Calm     83% 0 mm WeatherDisplay:10.37 W/m2 BKN
00:05 22.7 °C 19.7 °C 1019.2 hPa Calm     83% 0 mm WeatherDisplay:10.37 W/m2 BKN
00:10 22.7 °C 19.6 °C 1019.2 hPa Calm     83% 0 mm WeatherDisplay:10.37 W/m2 BKN
00:15 22.7 °C 19.6 °C 1019.2 hPa Calm     83% 0 mm WeatherDisplay:10.37 W/m2 BKN
00:20 22.6 °C 19.6 °C 1019.2 hPa Calm     83% 0 mm WeatherDisplay:10.37 W/m2 CLR
00:25 22.6 °C 19.6 °C 1019.2 hPa Calm     83% 0 mm WeatherDisplay:10.37 W/m2 CLR
00:30 22.6 °C 19.6 °C 1018.8 hPa Calm     83% 0 mm WeatherDisplay:10.37 W/m2 CLR
00:35 22.6 °C 19.7 °C 1019.2 hPa Calm     84% 0 mm WeatherDisplay:10.37 W/m2 CLR
00:40 22.6 °C 19.7 °C 1018.8 hPa Calm     84% 0 mm WeatherDisplay:10.37 W/m2 CLR
00:50 22.5 °C 19.4 °C 1018.8 hPa Calm     83% 0 mm WeatherDisplay:10.37 W/m2 CLR
00:55 22.5 °C 19.4 °C 1019.2 hPa Calm     83% 0 mm WeatherDisplay:10.37 W/m2 CLR
01:00 22.4 °C 19.4 °C 1019.2 hPa Calm     83% 0 mm WeatherDisplay:10.37 W/m2 CLR
01:05 22.4 °C 19.4 °C 1019.2 hPa Calm     83% 0 mm WeatherDisplay:10.37 W/m2 CLR
01:15 22.4 °C 19.4 °C 1019.2 hPa Calm     83% 0 mm WeatherDisplay:10.37 W/m2 CLR
01:20 22.4 °C 19.3 °C 1019.2 hPa Calm     83% 0 mm WeatherDisplay:10.37 W/m2 CLR
01:25 22.3 °C 19.3 °C 1018.8 hPa Calm     83% 0 mm WeatherDisplay:10.37 W/m2 CLR
01:30 22.3 °C 19.3 °C 1019.2 hPa Calm     83% 0 mm WeatherDisplay:10.37 W/m2 CLR
01:40 22.2 °C 19.3 °C 1019.2 hPa Calm     84% 0 mm WeatherDisplay:10.37 W/m2 CLR
01:45 22.1 °C 19.3 °C 1019.2 hPa Calm     84% 0 mm WeatherDisplay:10.37 W/m2 CLR
01:50 22.1 °C 19.2 °C 1019.2 hPa Calm   1.6 km/h 84% 0 mm WeatherDisplay:10.37 W/m2 CLR
01:55 22.1 °C 19.2 °C 1019.2 hPa Calm     84% 0 mm WeatherDisplay:10.37 W/m2 CLR
02:00 22.1 °C 19.2 °C 1019.2 hPa Calm     84% 0 mm WeatherDisplay:10.37 W/m2 CLR
02:10 22.2 °C 19.2 °C 1019.2 hPa Calm     83% 0 mm WeatherDisplay:10.37 W/m2 CLR
02:15 22.2 °C 19.2 °C 1019.2 hPa Calm     83% 0 mm WeatherDisplay:10.37 W/m2 CLR
02:20 22.3 °C 19.1 °C 1018.8 hPa Calm   1.6 km/h 82% 0 mm WeatherDisplay:10.37 W/m2 CLR
02:30 22.6 °C 19.1 °C 1018.8 hPa Calm   1.6 km/h 81% 0 mm WeatherDisplay:10.37 W/m2 CLR
02:35 22.6 °C 19.2 °C 1018.8 hPa Calm   1.6 km/h 81% 0 mm WeatherDisplay:10.37 W/m2 CLR
02:40 22.6 °C 19.2 °C 1018.8 hPa Calm   1.6 km/h 81% 0 mm WeatherDisplay:10.37 W/m2 CLR
02:45 22.6 °C 19.2 °C 1018.8 hPa Calm     81% 0 mm WeatherDisplay:10.37 W/m2 CLR
02:50 22.6 °C 19.1 °C 1018.8 hPa Calm   1.6 km/h 81% 0 mm WeatherDisplay:10.37 W/m2 BKN
02:55 22.6 °C 19.1 °C 1018.8 hPa Calm   1.6 km/h 81% 0 mm WeatherDisplay:10.37 W/m2 BKN
03:00 22.5 °C 19.1 °C 1018.8 hPa Calm   1.6 km/h 81% 0 mm WeatherDisplay:10.37 W/m2 BKN
03:10 22.4 °C 19.2 °C 1018.8 hPa Calm     82% 0 mm WeatherDisplay:10.37 W/m2 BKN
03:20 22.3 °C 19.1 °C 1018.8 hPa Calm     82% 0 mm WeatherDisplay:10.37 W/m2 FEW
03:25 22.3 °C 19.1 °C 1018.8 hPa Calm     82% 0 mm WeatherDisplay:10.37 W/m2 FEW
03:30 22.3 °C 19.1 °C 1018.8 hPa Calm     82% 0 mm WeatherDisplay:10.37 W/m2 BKN
03:40 22.2 °C 19.2 °C 1018.8 hPa Calm     83% 0 mm WeatherDisplay:10.37 W/m2 BKN
03:45 22.2 °C 19.2 °C 1019.2 hPa Calm     83% 0 mm WeatherDisplay:10.37 W/m2 BKN
03:50 22.1 °C 19.1 °C 1019.2 hPa Calm     83% 0 mm WeatherDisplay:10.37 W/m2 BKN
04:00 22 °C 19 °C 1019.2 hPa Calm     83% 0 mm WeatherDisplay:10.37 W/m2 BKN
04:05 22 °C 19 °C 1019.2 hPa Calm     83% 0 mm WeatherDisplay:10.37 W/m2 FEW
04:10 22 °C 19.2 °C 1019.2 hPa Calm     84% 0 mm WeatherDisplay:10.37 W/m2 FEW
04:15 21.9 °C 19.1 °C 1019.2 hPa Calm     84% 0 mm WeatherDisplay:10.37 W/m2 FEW
04:20 21.9 °C 19.1 °C 1019.2 hPa Calm     84% 0 mm WeatherDisplay:10.37 W/m2 CLR
04:25 21.9 °C 19.1 °C 1019.2 hPa Calm     84% 0 mm WeatherDisplay:10.37 W/m2 CLR
04:30 21.9 °C 19.1 °C 1019.2 hPa Calm     84% 0 mm WeatherDisplay:10.37 W/m2 CLR
04:40 21.8 °C 18.9 °C 1019.2 hPa Calm     84% 0 mm WeatherDisplay:10.37 W/m2 CLR
04:50 21.7 °C 18.9 °C 1019.2 hPa Calm     84% 0 mm WeatherDisplay:10.37 W/m2 CLR
04:55 21.7 °C 18.9 °C 1019.2 hPa Calm     84% 0 mm WeatherDisplay:10.37 W/m2 CLR
05:00 21.7 °C 19.1 °C 1019.2 hPa Calm     85% 0 mm WeatherDisplay:10.37 W/m2 CLR
05:10 21.6 °C 18.9 °C 1019.2 hPa Calm     85% 0 mm WeatherDisplay:10.37 W/m2 CLR
05:15 21.4 °C 18.8 °C 1019.2 hPa Calm     85% 0 mm WeatherDisplay:10.37 W/m2 CLR
05:25 21.3 °C 18.7 °C 1019.5 hPa Calm     85% 0 mm WeatherDisplay:10.37 W/m2 FEW
05:30 21.3 °C 18.8 °C 1019.5 hPa Calm     86% 0 mm WeatherDisplay:10.37 W/m2 FEW
05:35 21.2 °C 18.8 °C 1019.5 hPa Calm     86% 0 mm WeatherDisplay:10.37 W/m2 FEW
05:40 21.2 °C 18.7 °C 1019.5 hPa Calm     86% 0 mm WeatherDisplay:10.37 W/m2 FEW
05:45 21.1 °C 18.7 °C 1019.5 hPa Calm     86% 0 mm WeatherDisplay:10.37 W/m2 FEW
05:50 21.1 °C 18.6 °C 1019.5 hPa Calm     86% 0 mm WeatherDisplay:10.37 W/m2 FEW
05:55 21.1 °C 18.6 °C 1019.5 hPa Calm     86% 0 mm WeatherDisplay:10.37 W/m2 FEW
06:00 21 °C 18.6 °C 1019.5 hPa Calm     86% 0 mm WeatherDisplay:10.37 W/m2 FEW
06:10 20.9 °C 18.4 °C 1019.5 hPa Calm     86% 0 mm WeatherDisplay:10.37 W/m2 FEW
06:15 20.8 °C 18.6 °C 1019.5 hPa Calm     87% 0 mm WeatherDisplay:10.37 W/m2 FEW
06:20 20.8 °C 18.6 °C 1019.5 hPa Calm     87% 0 mm WeatherDisplay:10.37 W/m2 CLR
06:30 20.7 °C 18.4 °C 1019.5 hPa Calm     87% 0 mm WeatherDisplay:10.37 W/m2 CLR
06:40 20.6 °C 18.4 °C 1019.5 hPa Calm     87% 0 mm WeatherDisplay:10.37 W/m2 CLR
06:45 20.6 °C 18.3 °C 1019.5 hPa Calm     87% 0 mm WeatherDisplay:10.37 W/m2 CLR
06:50 20.6 °C 18.3 °C 1019.5 hPa Calm     87% 0 mm WeatherDisplay:10.37 W/m2 CLR
06:55 20.5 °C 18.3 °C 1019.5 hPa Calm     87% 0 mm WeatherDisplay:10.37 W/m2 CLR
07:00 20.4 °C 18.2 °C 1019.5 hPa Calm     87% 0 mm WeatherDisplay:10.37 W/m2 CLR
07:05 20.4 °C 18.2 °C 1019.5 hPa Calm     87% 0 mm WeatherDisplay:10.37 W/m2 CLR
07:10 20.4 °C 18.2 °C 1019.5 hPa Calm     87% 0 mm WeatherDisplay:10.37 W/m2 CLR
07:15 20.4 °C 18.2 °C 1019.5 hPa Calm     87% 0 mm WeatherDisplay:10.37 W/m2 CLR
07:20 20.4 °C 18.3 °C 1019.9 hPa Calm     88% 0 mm WeatherDisplay:10.37 W/m2 BKN
07:25 20.4 °C 18.3 °C 1019.5 hPa Calm     88% 0 mm WeatherDisplay:10.37 W/m2 BKN
07:30 20.4 °C 18.3 °C 1019.9 hPa Calm     88% 0 mm WeatherDisplay:10.37 W/m2 BKN
07:35 20.4 °C 18.4 °C 1019.9 hPa Calm     88% 0 mm WeatherDisplay:10.37 W/m2 BKN
07:40 20.5 °C 18.4 °C 1019.9 hPa Calm     88% 0 mm WeatherDisplay:10.37 W/m2 BKN
07:45 20.6 °C 18.5 °C 1019.9 hPa Calm     88% 0 mm WeatherDisplay:10.37 W/m2 BKN
07:50 20.7 °C 18.6 °C 1019.9 hPa Calm     88% 0 mm WeatherDisplay:10.37 W/m2 BKN
07:55 20.8 °C 18.7 °C 1019.9 hPa Calm     88% 0 mm WeatherDisplay:10.37 W/m2 BKN
08:00 20.9 °C 18.8 °C 1019.9 hPa Calm     88% 0 mm WeatherDisplay:10.37 W/m2 BKN
08:10 21.3 °C 19 °C 1019.9 hPa Calm     87% 0 mm WeatherDisplay:10.37 W/m2 BKN
08:15 21.4 °C 18.9 °C 1019.9 hPa Calm     86% 0 mm WeatherDisplay:10.37 W/m2 BKN
08:20 21.6 °C 19.2 °C 1019.9 hPa Calm     86% 0 mm WeatherDisplay:10.37 W/m2 BKN
08:25 21.8 °C 19.3 °C 1019.9 hPa Calm     86% 0 mm WeatherDisplay:10.37 W/m2 BKN
08:30 22 °C 19.3 °C 1019.9 hPa Calm     85% 0 mm WeatherDisplay:10.37 W/m2 BKN
08:40 22.3 °C 19.6 °C 1019.9 hPa Calm     85% 0 mm WeatherDisplay:10.37 W/m2 BKN
08:45 22.4 °C 19.6 °C 1019.9 hPa Calm     84% 0 mm WeatherDisplay:10.37 W/m2 BKN
08:50 22.6 °C 19.8 °C 1019.9 hPa Calm     84% 0 mm WeatherDisplay:10.37 W/m2 BKN
08:55 22.7 °C 19.9 °C 1020.2 hPa Calm     84% 0 mm WeatherDisplay:10.37 W/m2 BKN
09:00 22.9 °C 20.1 °C 1020.2 hPa Calm     84% 0 mm WeatherDisplay:10.37 W/m2 BKN
09:10 23.1 °C 20 °C 1020.2 hPa Calm     83% 0 mm WeatherDisplay:10.37 W/m2 BKN
09:20 23.3 °C 20.2 °C 1020.2 hPa Calm     83% 0 mm WeatherDisplay:10.37 W/m2 BKN
09:30 23.7 °C 20.4 °C 1020.2 hPa Calm     82% 0 mm WeatherDisplay:10.37 W/m2 BKN
09:40 24.1 °C 20.8 °C 1019.9 hPa Calm     82% 0 mm WeatherDisplay:10.37 W/m2 BKN
09:45 24.3 °C 20.9 °C 1020.2 hPa Calm     81% 0 mm WeatherDisplay:10.37 W/m2 BKN
09:50 24.4 °C 20.5 °C 1020.2 hPa WNW 1.6 km/h 1.6 km/h 79% 0 mm WeatherDisplay:10.37 W/m2 BKN
09:55 24.4 °C 20.5 °C 1020.2 hPa Calm   1.6 km/h 79% 0 mm WeatherDisplay:10.37 W/m2 BKN
10:00 24.5 °C 20.4 °C 1020.2 hPa Calm   1.6 km/h 78% 0 mm WeatherDisplay:10.37 W/m2 BKN
10:05 24.7 °C 20.8 °C 1020.2 hPa Calm   1.6 km/h 79% 0 mm WeatherDisplay:10.37 W/m2 BKN
10:10 24.8 °C 20.7 °C 1020.2 hPa Calm   3.2 km/h 78% 0 mm WeatherDisplay:10.37 W/m2 BKN
10:15 24.9 °C 20.6 °C 1020.2 hPa Calm   1.6 km/h 77% 0 mm WeatherDisplay:10.37 W/m2 BKN
10:20 24.9 °C 20.8 °C 1020.2 hPa Calm   1.6 km/h 78% 0 mm WeatherDisplay:10.37 W/m2 BKN
10:25 24.9 °C 20.6 °C 1020.5 hPa Calm   1.6 km/h 77% 0 mm WeatherDisplay:10.37 W/m2 BKN
10:30 24.9 °C 20.6 °C 1020.2 hPa Calm   1.6 km/h 77% 0 mm WeatherDisplay:10.37 W/m2 BKN
10:40 25.1 °C 20.6 °C 1020.2 hPa Calm   1.6 km/h 76% 0 mm WeatherDisplay:10.37 W/m2 BKN
10:45 25.1 °C 20.8 °C 1020.2 hPa Calm     77% 0 mm WeatherDisplay:10.37 W/m2 BKN
10:50 25.2 °C 20.9 °C 1020.2 hPa Calm     77% 0 mm WeatherDisplay:10.37 W/m2 BKN
10:55 25.3 °C 21 °C 1020.2 hPa Calm     77% 0 mm WeatherDisplay:10.37 W/m2 BKN
11:00 25.5 °C 20.9 °C 1020.2 hPa Calm   1.6 km/h 76% 0 mm WeatherDisplay:10.37 W/m2 BKN
11:05 25.8 °C 21.4 °C 1020.2 hPa SE 1.6 km/h 1.6 km/h 77% 0 mm WeatherDisplay:10.37 W/m2 BKN
11:10 26.1 °C 21.3 °C 1020.2 hPa Calm   1.6 km/h 75% 0 mm WeatherDisplay:10.37 W/m2 BKN
11:15 26.2 °C 21.2 °C 1020.2 hPa East 1.6 km/h 3.2 km/h 74% 0 mm WeatherDisplay:10.37 W/m2 BKN
11:20 26 °C 20.8 °C 1020.2 hPa Calm   1.6 km/h 73% 0 mm WeatherDisplay:10.37 W/m2 BKN
11:25 25.8 °C 20.8 °C 1019.9 hPa Calm   3.2 km/h 74% 0 mm WeatherDisplay:10.37 W/m2 BKN
11:30 25.8 °C 20.8 °C 1019.9 hPa Calm   3.2 km/h 74% 0 mm WeatherDisplay:10.37 W/m2 BKN
11:40 26.3 °C 21.1 °C 1019.9 hPa Calm   3.2 km/h 73% 0 mm WeatherDisplay:10.37 W/m2 BKN
11:45 26.6 °C 21.1 °C 1019.9 hPa Calm   1.6 km/h 72% 0 mm WeatherDisplay:10.37 W/m2 BKN
11:50 26.7 °C 21 °C 1019.9 hPa Calm   3.2 km/h 71% 0 mm WeatherDisplay:10.37 W/m2 BKN
11:55 26.9 °C 21.2 °C 1019.9 hPa Calm   3.2 km/h 71% 0 mm WeatherDisplay:10.37 W/m2 BKN
12:00 26.7 °C 20.9 °C 1019.9 hPa Calm   1.6 km/h 71% 0 mm WeatherDisplay:10.37 W/m2 BKN
12:10 27.1 °C 21.1 °C 1019.9 hPa Calm   3.2 km/h 70% 0 mm WeatherDisplay:10.37 W/m2 BKN
12:15 27.1 °C 21.1 °C 1019.9 hPa Calm   1.6 km/h 70% 0 mm WeatherDisplay:10.37 W/m2 BKN
12:20 27.3 °C 20.9 °C 1019.9 hPa WSW 1.6 km/h 3.2 km/h 68% 0 mm WeatherDisplay:10.37 W/m2 BKN
12:25 27.7 °C 21.2 °C 1019.9 hPa North 1.6 km/h 1.6 km/h 68% 0 mm WeatherDisplay:10.37 W/m2 BKN
12:30 27.8 °C 20.9 °C 1019.9 hPa Calm   1.6 km/h 66% 0 mm WeatherDisplay:10.37 W/m2 BKN
12:35 28.1 °C 21.1 °C 1019.9 hPa Calm   1.6 km/h 66% 0 mm WeatherDisplay:10.37 W/m2 BKN
12:40 28.3 °C 21.3 °C 1019.9 hPa Calm   1.6 km/h 66% 0 mm WeatherDisplay:10.37 W/m2 BKN
12:45 28.2 °C 20.9 °C 1019.5 hPa Calm   1.6 km/h 65% 0 mm WeatherDisplay:10.37 W/m2 BKN
12:50 28.1 °C 20.8 °C 1019.5 hPa Calm   1.6 km/h 65% 0 mm WeatherDisplay:10.37 W/m2 BKN
12:55 28.1 °C 20.6 °C 1019.5 hPa Calm   1.6 km/h 64% 0 mm WeatherDisplay:10.37 W/m2 BKN
13:00 28.1 °C 21.1 °C 1019.5 hPa Calm   1.6 km/h 66% 0 mm WeatherDisplay:10.37 W/m2 BKN
13:10 28 °C 21.3 °C 1019.5 hPa Calm   1.6 km/h 67% 0 mm WeatherDisplay:10.37 W/m2 BKN
13:15 28.2 °C 20.9 °C 1019.5 hPa Calm   1.6 km/h 65% 0 mm WeatherDisplay:10.37 W/m2 BKN
13:20 28.2 °C 21.2 °C 1019.5 hPa Calm   1.6 km/h 66% 0 mm WeatherDisplay:10.37 W/m2 OVC
13:25 28.3 °C 21.3 °C 1019.2 hPa Calm   1.6 km/h 66% 0 mm WeatherDisplay:10.37 W/m2 OVC
13:30 28.3 °C 21.3 °C 1019.2 hPa Calm   3.2 km/h 66% 0 mm WeatherDisplay:10.37 W/m2 OVC
13:35 28.5 °C 21.1 °C 1019.2 hPa Calm     64% 0 mm WeatherDisplay:10.37 W/m2 OVC
13:40 28.7 °C 21.5 °C 1019.2 hPa Calm   1.6 km/h 65% 0 mm WeatherDisplay:10.37 W/m2 OVC
13:45 28.9 °C 21.4 °C 1019.2 hPa Calm   1.6 km/h 64% 0 mm WeatherDisplay:10.37 W/m2 OVC
13:50 29.3 °C 21.5 °C 1019.2 hPa Calm   1.6 km/h 63% 0 mm WeatherDisplay:10.37 W/m2 OVC
13:55 29.7 °C 21.6 °C 1018.8 hPa Calm   1.6 km/h 62% 0 mm WeatherDisplay:10.37 W/m2 OVC
14:00 29.8 °C 21.4 °C 1018.8 hPa Calm   1.6 km/h 61% 0 mm WeatherDisplay:10.37 W/m2 OVC
14:10 29.3 °C 21 °C 1018.8 hPa Calm   1.6 km/h 61% 0 mm WeatherDisplay:10.37 W/m2 OVC
14:15 29.2 °C 21.4 °C 1018.8 hPa Calm   1.6 km/h 63% 0 mm WeatherDisplay:10.37 W/m2 OVC
14:20 29.3 °C 20.8 °C 1018.8 hPa Calm   3.2 km/h 60% 0 mm WeatherDisplay:10.37 W/m2 BKN
14:25 29.4 °C 21.4 °C 1018.8 hPa WSW 1.6 km/h 3.2 km/h 62% 0 mm WeatherDisplay:10.37 W/m2 BKN
14:30 29.4 °C 20.9 °C 1018.5 hPa West 1.6 km/h 3.2 km/h 60% 0 mm WeatherDisplay:10.37 W/m2 BKN
14:35 29.2 °C 20.7 °C 1018.5 hPa Calm   3.2 km/h 60% 0 mm WeatherDisplay:10.37 W/m2 BKN
14:40 29.1 °C 20.6 °C 1018.5 hPa Calm   1.6 km/h 60% 0 mm WeatherDisplay:10.37 W/m2 BKN
14:45 29.2 °C 20.9 °C 1018.5 hPa WNW 1.6 km/h 3.2 km/h 61% 0 mm WeatherDisplay:10.37 W/m2 BKN
14:50 29.2 °C 21.4 °C 1018.5 hPa Calm     63% 0 mm WeatherDisplay:10.37 W/m2 BKN
14:55 29 °C 20.9 °C 1018.5 hPa Calm   1.6 km/h 62% 0 mm WeatherDisplay:10.37 W/m2 BKN
15:00 28.7 °C 20.7 °C 1018.5 hPa Calm   4.8 km/h 62% 0 mm WeatherDisplay:10.37 W/m2 BKN
15:10 28.7 °C 21.5 °C 1018.5 hPa Calm   1.6 km/h 65% 0 mm WeatherDisplay:10.37 W/m2 BKN
15:15 28.7 °C 21.2 °C 1018.5 hPa Calm     64% 0 mm WeatherDisplay:10.37 W/m2 BKN
15:20 28.5 °C 21 °C 1018.5 hPa Calm   1.6 km/h 64% 0 mm WeatherDisplay:10.37 W/m2 BKN
15:25 28.4 °C 21.2 °C 1018.2 hPa Calm     65% 0 mm WeatherDisplay:10.37 W/m2 BKN
15:30 28.3 °C 20.6 °C 1018.2 hPa Calm   1.6 km/h 63% 0 mm WeatherDisplay:10.37 W/m2 BKN
15:35 28.4 °C 20.9 °C 1018.2 hPa Calm   1.6 km/h 64% 0 mm WeatherDisplay:10.37 W/m2 BKN
15:40 28.4 °C 20.7 °C 1018.2 hPa Calm     63% 0 mm WeatherDisplay:10.37 W/m2 BKN
15:45 28.5 °C 20.2 °C 1018.2 hPa Calm   1.6 km/h 61% 0 mm WeatherDisplay:10.37 W/m2 BKN
15:50 28.6 °C 20.8 °C 1018.2 hPa Calm   1.6 km/h 63% 0 mm WeatherDisplay:10.37 W/m2 BKN
15:55 28.6 °C 21.1 °C 1018.2 hPa Calm     64% 0 mm WeatherDisplay:10.37 W/m2 BKN
16:00 28.7 °C 21.2 °C 1018.2 hPa Calm   1.6 km/h 64% 0 mm WeatherDisplay:10.37 W/m2 BKN
16:10 28.6 °C 20.9 °C 1017.8 hPa Calm   1.6 km/h 63% 0 mm WeatherDisplay:10.37 W/m2 BKN
16:15 28.5 °C 20 °C 1017.8 hPa Calm   1.6 km/h 60% 0 mm WeatherDisplay:10.37 W/m2 BKN
16:20 28.5 °C 20.8 °C 1017.8 hPa Calm     63% 0 mm WeatherDisplay:10.37 W/m2 BKN
16:25 28.5 °C 20.5 °C 1017.8 hPa Calm     62% 0 mm WeatherDisplay:10.37 W/m2 BKN
16:30 28.5 °C 20.2 °C 1017.8 hPa Calm     61% 0 mm WeatherDisplay:10.37 W/m2 BKN
16:40 28.5 °C 20.5 °C 1017.8 hPa Calm     62% 0 mm WeatherDisplay:10.37 W/m2 BKN
16:45 28.4 °C 21 °C 1017.8 hPa Calm     64% 0 mm WeatherDisplay:10.37 W/m2 BKN
16:50 28.4 °C 20.4 °C 1017.8 hPa Calm     62% 0 mm WeatherDisplay:10.37 W/m2 BKN
16:55 28.4 °C 21 °C 1017.8 hPa Calm     64% 0 mm WeatherDisplay:10.37 W/m2 BKN
17:00 28.3 °C 20.6 °C 1017.5 hPa Calm     63% 0 mm WeatherDisplay:10.37 W/m2 BKN
17:05 28.3 °C 20.9 °C 1017.5 hPa Calm     64% 0 mm WeatherDisplay:10.37 W/m2 BKN
17:15 28.2 °C 20.8 °C 1017.8 hPa Calm     64% 0 mm WeatherDisplay:10.37 W/m2 BKN
17:20 28.2 °C 20.5 °C 1017.8 hPa Calm     63% 0 mm WeatherDisplay:10.37 W/m2 OVC
17:25 28.2 °C 21 °C 1017.5 hPa Calm     65% 0 mm WeatherDisplay:10.37 W/m2 OVC
17:30 28.3 °C 20.1 °C 1017.5 hPa Calm     61% 0 mm WeatherDisplay:10.37 W/m2 OVC
17:35 28.4 °C 20.7 °C 1017.5 hPa Calm     63% 0 mm WeatherDisplay:10.37 W/m2 OVC
17:40 28.4 °C 20.2 °C 1017.8 hPa Calm     61% 0 mm WeatherDisplay:10.37 W/m2 OVC
17:45 28.4 °C 20.2 °C 1017.5 hPa Calm     61% 0 mm WeatherDisplay:10.37 W/m2 OVC
17:50 28.4 °C 20.4 °C 1017.5 hPa Calm     62% 0 mm WeatherDisplay:10.37 W/m2 OVC
17:55 28.3 °C 20.8 °C 1017.8 hPa Calm   1.6 km/h 64% 0 mm WeatherDisplay:10.37 W/m2 OVC
18:00 28.3 °C 20.6 °C 1017.8 hPa Calm   1.6 km/h 63% 0 mm WeatherDisplay:10.37 W/m2 OVC
18:10 28.2 °C 21 °C 1017.5 hPa Calm     65% 0 mm WeatherDisplay:10.37 W/m2 OVC
18:15 28.2 °C 20.7 °C 1017.8 hPa Calm   1.6 km/h 64% 0 mm WeatherDisplay:10.37 W/m2 OVC
18:20 28.1 °C 20.8 °C 1017.8 hPa Calm     65% 0 mm WeatherDisplay:10.37 W/m2 BKN
18:25 28 °C 20.6 °C 1017.8 hPa Calm   1.6 km/h 64% 0 mm WeatherDisplay:10.37 W/m2 BKN
18:30 27.9 °C 20.7 °C 1017.8 hPa Calm     65% 0 mm WeatherDisplay:10.37 W/m2 BKN
18:40 27.7 °C 20.8 °C 1017.8 hPa Calm     66% 0 mm WeatherDisplay:10.37 W/m2 BKN
18:45 27.6 °C 20.4 °C 1017.8 hPa Calm   1.6 km/h 65% 0 mm WeatherDisplay:10.37 W/m2 BKN
18:50 27.6 °C 20.6 °C 1017.8 hPa Calm   1.6 km/h 66% 0 mm WeatherDisplay:10.37 W/m2 BKN
18:55 27.4 °C 20.8 °C 1017.8 hPa Calm     67% 0 mm WeatherDisplay:10.37 W/m2 BKN
19:00 27.2 °C 20.8 °C 1017.8 hPa Calm     68% 0 mm WeatherDisplay:10.37 W/m2 BKN
19:05 26.9 °C 20.8 °C 1017.8 hPa Calm     69% 0 mm WeatherDisplay:10.37 W/m2 BKN
19:10 26.8 °C 20.6 °C 1017.8 hPa Calm     69% 0 mm WeatherDisplay:10.37 W/m2 BKN
19:15 26.6 °C 20.7 °C 1017.8 hPa Calm     70% 0 mm WeatherDisplay:10.37 W/m2 BKN
19:20 26.4 °C 20.6 °C 1017.8 hPa Calm     70% 0 mm WeatherDisplay:10.37 W/m2 BKN
19:25 26.3 °C 20.4 °C 1017.8 hPa Calm     70% 0 mm WeatherDisplay:10.37 W/m2 BKN
19:30 26.3 °C 20.7 °C 1017.8 hPa Calm     71% 0 mm WeatherDisplay:10.37 W/m2 BKN
19:35 26.2 °C 20.5 °C 1017.8 hPa Calm     71% 0 mm WeatherDisplay:10.37 W/m2 BKN
19:40 26 °C 20.3 °C 1018.2 hPa Calm     71% 0 mm WeatherDisplay:10.37 W/m2 BKN
19:45 25.9 °C 20.3 °C 1018.2 hPa Calm     71% 0 mm WeatherDisplay:10.37 W/m2 BKN
19:50 25.9 °C 20.5 °C 1017.8 hPa Calm     72% 0 mm WeatherDisplay:10.37 W/m2 BKN
19:55 25.9 °C 20.4 °C 1017.8 hPa Calm     72% 0 mm WeatherDisplay:10.37 W/m2 BKN
20:00 25.8 °C 20.4 °C 1017.8 hPa Calm     72% 0 mm WeatherDisplay:10.37 W/m2 BKN
20:10 25.7 °C 20.4 °C 1018.2 hPa Calm     73% 0 mm WeatherDisplay:10.37 W/m2 BKN
20:15 25.6 °C 20.4 °C 1018.2 hPa Calm     73% 0 mm WeatherDisplay:10.37 W/m2 BKN
20:20 25.6 °C 20.3 °C 1018.2 hPa Calm     73% 0 mm WeatherDisplay:10.37 W/m2 BKN
20:25 25.5 °C 20.6 °C 1018.5 hPa Calm     74% 0 mm WeatherDisplay:10.37 W/m2 BKN
20:30 25.5 °C 20.5 °C 1018.5 hPa Calm     74% 0 mm WeatherDisplay:10.37 W/m2 BKN
20:40 25.3 °C 20.6 °C 1018.5 hPa Calm     75% 0 mm WeatherDisplay:10.37 W/m2 BKN
20:45 25.3 °C 20.7 °C 1018.2 hPa Calm     76% 0 mm WeatherDisplay:10.37 W/m2 BKN
20:50 25.2 °C 20.8 °C 1018.2 hPa Calm     77% 0 mm WeatherDisplay:10.37 W/m2 BKN
20:55 25.1 °C 20.8 °C 1018.2 hPa Calm     77% 0 mm WeatherDisplay:10.37 W/m2 BKN
21:00 25.1 °C 20.7 °C 1018.2 hPa Calm     77% 0 mm WeatherDisplay:10.37 W/m2 BKN
21:05 25 °C 20.9 °C 1018.2 hPa Calm     78% 0 mm WeatherDisplay:10.37 W/m2 BKN
21:10 24.9 °C 20.8 °C 1018.5 hPa Calm     78% 0 mm WeatherDisplay:10.37 W/m2 BKN
21:15 24.9 °C 20.8 °C 1018.5 hPa Calm     78% 0 mm WeatherDisplay:10.37 W/m2 BKN
21:20 24.8 °C 20.9 °C 1018.2 hPa Calm     79% 0 mm WeatherDisplay:10.37 W/m2 BKN
21:25 24.8 °C 20.9 °C 1018.5 hPa Calm     79% 0 mm WeatherDisplay:10.37 W/m2 BKN
21:30 24.7 °C 20.8 °C 1018.5 hPa Calm     79% 0 mm WeatherDisplay:10.37 W/m2 BKN
21:40 24.6 °C 20.9 °C 1018.5 hPa Calm     80% 0 mm WeatherDisplay:10.37 W/m2 BKN
21:45 24.5 °C 20.8 °C 1018.5 hPa Calm     80% 0 mm WeatherDisplay:10.37 W/m2 BKN
21:50 24.4 °C 20.8 °C 1018.5 hPa Calm     80% 0 mm WeatherDisplay:10.37 W/m2 BKN
21:55 24.4 °C 20.8 °C 1018.5 hPa Calm     80% 0 mm WeatherDisplay:10.37 W/m2 BKN
22:00 24.4 °C 20.7 °C 1018.5 hPa Calm     80% 0 mm WeatherDisplay:10.37 W/m2 BKN
22:05 24.4 °C 20.9 °C 1018.5 hPa Calm     81% 0 mm WeatherDisplay:10.37 W/m2 BKN
22:10 24.3 °C 20.8 °C 1018.5 hPa Calm     81% 0 mm WeatherDisplay:10.37 W/m2 BKN
22:15 24.2 °C 20.8 °C 1018.8 hPa Calm     81% 0 mm WeatherDisplay:10.37 W/m2 BKN
22:20 24.2 °C 20.7 °C 1018.8 hPa Calm     81% 0 mm WeatherDisplay:10.37 W/m2 BKN
22:25 24.1 °C 20.7 °C 1018.8 hPa Calm     81% 0 mm WeatherDisplay:10.37 W/m2 BKN
22:30 24.1 °C 20.6 °C 1018.8 hPa Calm     81% 0 mm WeatherDisplay:10.37 W/m2 BKN
22:35 24 °C 20.6 °C 1018.8 hPa Calm     81% 0 mm WeatherDisplay:10.37 W/m2 BKN
22:40 23.9 °C 20.7 °C 1018.8 hPa Calm     82% 0 mm WeatherDisplay:10.37 W/m2 BKN
22:45 23.8 °C 20.6 °C 1018.8 hPa Calm     82% 0 mm WeatherDisplay:10.37 W/m2 BKN
22:50 23.7 °C 20.4 °C 1018.8 hPa Calm     82% 0 mm WeatherDisplay:10.37 W/m2 BKN
22:55 23.7 °C 20.4 °C 1018.8 hPa Calm     82% 0 mm WeatherDisplay:10.37 W/m2 BKN
23:00 23.6 °C 20.6 °C 1018.8 hPa Calm     83% 0 mm WeatherDisplay:10.37 W/m2 BKN
23:05 23.6 °C 20.5 °C 1019.2 hPa Calm     83% 0 mm WeatherDisplay:10.37 W/m2 BKN
23:10 23.5 °C 20.4 °C 1019.2 hPa Calm     83% 0 mm WeatherDisplay:10.37 W/m2 BKN
23:20 23.3 °C 20.2 °C 1018.8 hPa Calm     83% 0 mm WeatherDisplay:10.37 W/m2 BKN
23:25 23.2 °C 20.2 °C 1019.2 hPa Calm     83% 0 mm WeatherDisplay:10.37 W/m2 BKN
23:30 23.1 °C 20.3 °C 1019.2 hPa Calm     84% 0 mm WeatherDisplay:10.37 W/m2 BKN
23:35 23.1 °C 20.2 °C 1019.2 hPa Calm     84% 0 mm WeatherDisplay:10.37 W/m2 BKN
23:40 22.9 °C 20.1 °C 1019.2 hPa Calm     84% 0 mm WeatherDisplay:10.37 W/m2 BKN
23:45 22.9 °C 20.1 °C 1019.2 hPa Calm     84% 0 mm WeatherDisplay:10.37 W/m2 BKN
23:50 22.8 °C 20 °C 1019.2 hPa Calm     84% 0 mm WeatherDisplay:10.37 W/m2 BKN
23:55 22.8 °C 20 °C 1019.2 hPa Calm     84% 0 mm WeatherDisplay:10.37 W/m2 BKN
Piedmont Bend
Compliments of Weather Underground - 4 mb